Regional Weather Roundup
Issued by NWS

Home | Current Version | Previous Version | Text Only | Print | Product List | Glossary Off
Versions: 1 2 3 4 5 6 7 8 9 10 11 12 13 14 15 16 17 18 19 20 21 22 23 24 25 26 27 28 29 30 31 32 33 34 35 36 37 38 39 40 41 42 43 44 45 46 47 48 49 50

000
ASUS43 KBIS 270710
RWRND

NORTH DAKOTA REGIONAL WEATHER ROUNDUP
NATIONAL WEATHER SERVICE BISMARCK ND
200 AM CDT TUE JUN 27 2017

NOTE: "FAIR" INDICATES FEW OR NO CLOUDS BELOW 12,000 FEET WITH NO
SIGNIFICANT WEATHER AND/OR OBSTRUCTIONS TO VISIBILITY.


NDZ001>003-009>011-017-270800-
NORTHWEST NORTH DAKOTA

CITY           SKY/WX    TMP DP  RH WIND       PRES   REMARKS
WILLISTON      CLOUDY    70  42  36 S13G18    29.80F
MINOT          CLOUDY    64  40  41 S14       29.87F
MINOT AFB      CLOUDY    62  41  45 S13       29.85F
$$

NDZ018>021-031>035-040>046-270800-
SOUTHWEST NORTH DAKOTA

CITY           SKY/WX    TMP DP  RH WIND       PRES   REMARKS
BISMARCK       CLOUDY    62  39  42 S14       29.96F
DICKINSON      CLOUDY    61  37  41 S23G32    29.87F
GARRISON         N/A     61  41  47 S14       29.90F
HETTINGER ARPT CLOUDY    61  37  41 SE17G26   29.94F
$$

NDZ004>008-012>016-024-026-027-054-270800-
NORTHEAST NORTH DAKOTA

CITY           SKY/WX    TMP DP  RH WIND       PRES   REMARKS
GRAND FORKS    CLEAR     50  43  77 S6        29.98F
GRND FRKS AFB  CLEAR     50  40  70 S9        29.98F
DEVILS LAKE    CLEAR     60  41  49 S13       29.98F
$$

NDZ022-023-025-028>030-036>039-047>053-270800-
SOUTHEAST NORTH DAKOTA

CITY           SKY/WX    TMP DP  RH WIND       PRES   REMARKS
FARGO          CLEAR     54  40  59 S10       30.03F
JAMESTOWN      CLEAR     53  39  59 S12       30.01F
$$





USA.gov is the U.S. government's official web portal to all federal, state and local government web resources and services.